クリステンセン彗星

298P/Christensen (2007)

English version
Home page
Updated on March 25, 2014

---------------------------------------------------------------------

・ プロフィール

符号 298P/2007 C1
発見日 2007年2月9日
発見光度 18.8等
発見者 E. J. Christensen (Catalina Sky Survey)

・ 写真集

・ 軌道要素

Epoch 2007 Mar. 1.0 TT = JDT 2454160.5
T 2007 Mar. 5.24854 TT                                  MPC
q   2.0506456            (2000.0)            P               Q
n   0.15115764     Peri.   95.60720     -0.88063957     -0.45906449
a   3.4901920      Node    57.11781     +0.36035271     -0.80957408
e   0.4124548      Incl.    8.02171     +0.30760343     -0.36585463
P   6.52
From 133 observations 2007 Feb. 9-2014 Mar. 23, mean residual 0".5.

・ 光度変化

        m1 = 15.2 + 5 logΔ + 10.0 log r

---------------------------------------------------------------------

軌道要素はM.P.E.C. 2014-F26に掲載されたものです。
光度グラフはComet for Windowsで作成したものです。

---------------------------------------------------------------------

Copyright(C) Seiichi Yoshida (comet@aerith.net). All rights reserved.